Regional Weather Roundup
Issued by NWS

Home | Current Version | Previous Version | Graphics & Text | Print | Product List | Glossary On
Versions: 1 2 3 4 5 6 7 8 9 10 11 12 13 14 15 16 17 18 19 20 21 22 23 24 25 26 27 28 29 30 31 32 33 34 35 36 37 38 39 40 41 42 43 44 45 46 47 48 49 50
000
ASUS43 KIND 241809
RWRIN

WEATHER ROUNDUP FOR INDIANA
NATIONAL WEATHER SERVICE INDIANAPOLIS IN
200 PM EDT TUE MAY 24 2016

NOTE: "FAIR" INDICATES FEW OR NO CLOUDS BELOW 12,000 FEET WITH NO
SIGNIFICANT WEATHER AND/OR OBSTRUCTIONS TO VISIBILITY.

* - STATION DOES NOT REPORT WEATHER SUCH AS PRECIPITATION OR FOG.

+ - STATION NOT QUALITY CONTROLLED BY THE NATIONAL WEATHER SERVICE.
    USE DATA WITH CAUTION...ESPECIALLY DEWPOINT AND RELATIVE
    HUMIDITY OBSERVATIONS.

INZ001>003-010>013-019-020-241900-
NORTHWEST INDIANA

CITY           SKY/WX    TMP DP  RH WIND       PRES   REMARKS
GARY /AIRPORT/ MOSUNNY   84  59  42 SW14      29.99F
KNOX *+        MOSUNNY   82  32  16 SW14G22   30.01
LA PORTE +     SUNNY     86  46  25 SW12G20   30.02F
6HR MIN TEMP:  63; 6HR MAX TEMP:  86;

MICHIGAN CITY+ SUNNY     82  52  34 SW15      30.00F
MONTICELLO +   MOSUNNY   82  40  22 S9        30.02F
6HR MIN TEMP:  62; 6HR MAX TEMP:  83;

RENSSELAER +   SUNNY     84  39  20 SW12G22   30.02S
VALPARAISO     SUNNY     84  49  29 S15G23    30.01F
6HR MIN TEMP:  63; 6HR MAX TEMP:  84;


$$

LMZ046-743>745-241900-
SOUTHERN LAKE MICHIGAN

STATION/POSITION TIME  TEMP    WIND        PRES    WAVE
                       AIR SEA DIR/SP/G            HT
                 (UTC) (F)     (DEG/KT/KT) (MB)    (FT)
BURNS HARBOR     1700   79     220/ 15/ 21 1016.3F
MICHIGAN CITY    1700   74     190/  1/  5   N/A
5NW MICH CITY    1700   73 58   CALM  /  2   N/A     0

$$

INZ004-005-014>016-021>024-241900-
NORTH CENTRAL INDIANA

CITY           SKY/WX    TMP DP  RH WIND       PRES   REMARKS
ELKHART        MOSUNNY   81  57  44 SW7       30.04F
GOSHEN         MOSUNNY   82  50  32 S10G16    30.03F
6HR MIN TEMP:  60; 6HR MAX TEMP:  82; 6HR PCP: TRACE;

LOGANSPORT +   MOSUNNY   82  48  30 SW12      30.05F
PERU/GRISSOM   MOSUNNY   81  50  33 S8        30.04S
6HR MIN TEMP:  61; 6HR MAX TEMP:  82;

ROCHESTER +    MOSUNNY   84  50  30 S8        30.05S
SOUTH BEND     SUNNY     82  51  34 SW10G25   30.03F
6HR MIN TEMP:  61; 6HR MAX TEMP:  82;

WARSAW +       MOSUNNY   81  50  34 W8        30.04F

$$

INZ006>009-017-018-025>027-241900-
NORTHEAST INDIANA

CITY           SKY/WX    TMP DP  RH WIND       PRES   REMARKS
ANGOLA *+      MOSUNNY   81  54  39 SW8       30.04F
AUBURN +       SUNNY     81  46  30 W8        30.05F
FORT WAYNE     PTSUNNY   81  47  30 SW8       30.05F
6HR MIN TEMP:  58; 6HR MAX TEMP:  82;

HUNTINGTON +   MOSUNNY  N/A N/A N/A SW7       30.05F

$$

INZ028-029-035-036-043>045-051>053-241900-
WEST CENTRAL INDIANA

CITY           SKY/WX    TMP DP  RH WIND       PRES   REMARKS
CRAWFORDSVL +  MOSUNNY   81  51  35 S14G20    30.06S
6HR MIN TEMP:  58; 6HR MAX TEMP:  81;

GREENCASTLE +  MOSUNNY   79  59  50 SW5       30.07F
LAFAYETTE      MOSUNNY   82  50  32 SW10G17   30.03F
6HR MIN TEMP:  60; 6HR MAX TEMP:  82;

TERRE HAUTE    SUNNY     82  53  36 SW9G21    30.05F
6HR MIN TEMP:  59; 6HR MAX TEMP:  82;


$$

INZ030>032-037>040-046>048-054>057-064-065-241900-
CENTRAL INDIANA

CITY           SKY/WX    TMP DP  RH WIND       PRES   REMARKS
CP ATTERBURY + SUNNY     81  52  36 SW5       30.08F
COLUMBUS       SUNNY     79  48  34 SW12      30.09F
FISHERS *+     SUNNY     81  54  39 SW3       30.07F
FRANKFORT +      N/A     82  23  11 SW3G17    30.07F
6HR MIN TEMP:  62; 6HR MAX TEMP:  83;

GREENWOOD *+   SUNNY     81  50  34 SW7       30.08F
INDIANAPOLIS   PTSUNNY   80  54  40 VRB7      30.06F
6HR MIN TEMP:  60; 6HR MAX TEMP:  80;

-EAGLE CREEK   SUNNY     80  48  32 VRB7      30.06F
6HR MIN TEMP:  59; 6HR MAX TEMP:  81;

KOKOMO *+      MOSUNNY   81  54  39 SW9       30.05S
6HR MIN TEMP:  61; 6HR MAX TEMP:  82;

MARION +       SUNNY     80  46  29 S6G17     30.07F
SHELBYVILLE    SUNNY     81  46  29 W8        30.07F
6HR MIN TEMP:  59; 6HR MAX TEMP:  82;

ZIONSVILLE +   SUNNY     80  47  32 SW8       30.08S
6HR MIN TEMP:  59; 6HR MAX TEMP:  80;


$$

INZ033-034-041-042-049-050-058-059-241900-
EAST CENTRAL INDIANA

CITY           SKY/WX    TMP DP  RH WIND       PRES   REMARKS
MUNCIE         MOSUNNY   81  43  26 W6        30.07F
6HR MIN TEMP:  63; 6HR MAX TEMP:  81;


$$

INZ060-061-067>069-081>083-085>088-241900-
SOUTHWEST INDIANA

CITY           SKY/WX    TMP DP  RH WIND       PRES   REMARKS
EVANSVILLE     CLOUDY    78  55  44 S10       30.09F
6HR MIN TEMP:  60; 6HR MAX TEMP:  79;

HUNTINGBURG *+ SUNNY     82  55  39 S12       30.08F
6HR MIN TEMP:  57; 6HR MAX TEMP:  82;

WASHINGTON +   MOSUNNY   82  56  41 SW9G16    30.07S
6HR MIN TEMP:  58; 6HR MAX TEMP:  83;


$$

INZ062-063-066-070>080-084-089>092-241900-
SOUTH CENTRAL AND SOUTHEAST INDIANA

CITY           SKY/WX    TMP DP  RH WIND       PRES   REMARKS
BLOOMINGTON    MOSUNNY   82  52  35 VRB3      30.08F
6HR MIN TEMP:  57; 6HR MAX TEMP:  82;

MADISON *+     SUNNY     81  41  24 CALM      30.12F
NORTH VERNON + SUNNY     81  54  39 CALM      30.10F

$$




USA.gov is the U.S. government's official web portal to all federal, state and local government web resources and services.